Location: Kępno
(51.2838°N, 17.9864°E)
Time: 01:37:09
(UTC+01:00)

ISS - Visible Passes

Search period start: 23 January 2019 00:00
Search period end: 02 February 2019 00:00
Orbit: 404 x 411 km, 51.6° (Epoch: 23 January)

Date Brightness Start Highest point End Pass type
(mag) Time Alt. Az. Time Alt. Az. Time Alt. Az.
23 Jan -1.6 18:39:51 10° SSW 18:41:04 17° S 18:41:04 17° S visible
24 Jan -1.8 17:49:22 10° S 17:51:23 15° SE 17:52:03 15° SE visible
24 Jan -0.8 19:24:10 10° WSW 19:24:46 14° SW 19:24:46 14° SW visible
25 Jan -2.8 18:33:01 10° SW 18:35:40 37° S 18:35:40 37° S visible
26 Jan -2.5 17:42:01 10° SSW 17:44:53 27° SSE 17:46:30 18° ESE visible
26 Jan -1.4 19:17:51 10° WSW 19:19:13 23° WSW 19:19:13 23° WSW visible
27 Jan -3.8 18:26:31 10° WSW 18:29:48 64° SSE 18:30:00 62° SE visible
28 Jan -3.2 17:35:16 10° SW 17:38:27 47° SSE 17:40:44 17° E visible
28 Jan -1.9 19:11:35 10° W 19:13:26 31° W 19:13:26 31° W visible
29 Jan -3.9 18:20:10 10° WSW 18:23:29 88° SSE 18:24:08 55° E visible
29 Jan -0.2 19:56:45 10° W 19:56:51 11° W 19:56:51 11° W visible
30 Jan -3.7 17:28:46 10° WSW 17:32:04 73° SSE 17:34:49 14° E visible
30 Jan -2.4 19:05:18 10° W 19:07:31 39° W 19:07:31 39° W visible
31 Jan -3.9 18:13:51 10° W 18:17:10 82° N 18:18:11 41° E visible
31 Jan -0.5 19:50:25 10° W 19:50:54 13° W 19:50:54 13° W visible
01 Feb -3.8 17:22:23 10° W 17:25:42 87° N 17:28:51 11° E visible
01 Feb -3.0 18:58:58 10° W 19:01:34 52° W 19:01:34 52° W visible
